DELTA 1 DEB

Satellite information

Favourite Embed

Satellite Type and Status

DEBRISIN ORBIT

Key statistics

Satellite DELTA 1 DEB at a glance.

Uptime

19502

Days in orbit

Revolutions

≈ 14.6

Per day

Orbit

SSO

Sun Synchronous Orbit

Inclination

98.7

Latest

Satellite identification and parameters

Extended collection of information and parameters for DELTA 1 DEB.

Object identification

Identified? True

Debris? True

Object name: DELTA 1 DEB

International designator: 1972-058K

Object number (NORAD): 7839

Object ID (CCSDS): 7839

Country: UNITED STATES OF AMERICA (US)

Current information (Y/N): Y

RCS size: MEDIUM

Orbital parameters

Period: 98.7 minutes

Inclination: 98.7329 deg

SMA: 7074.654 km

Apoapsis: 808.749 km

Periapsis: 584.289 km

RAAN: 191.2796 deg

Eccentricy: 0.01586368

Argument of periapsis: 262.1849 deg

Mean anomaly: 96.1314 deg

Mean motion: 14.58965404 rev/day

Mean motion (dot): 0.00004846 rev/day2

B* drag term: 0.0008777321 1/REarth

Two-line elements (TLE)

Creation date: Dec. 12, 2025, 10:14 a.m.

Reference frame: TEME

Reference center: EARTH

Epoch: Dec. 12, 2025, 3:24 a.m. UTC

TLE line 0: 0 DELTA 1 DEB

TLE line 1: 1 07839U 72058K 25346.14170599 .00004846 00000-0 87773-3 0 9992

TLE line 2: 2 07839 98.7329 191.2796 0158637 262.1849 96.1314 14.58965404617750

Live tracking on map

Real-time ground track for satellite DELTA 1 DEB.

In-orbit conjunctions

A list of the most updated potential collisions computed for object DELTA 1 DEB.

Target Orbit TCA Probability of collision Miss distance Type
SCOUT X-4 R/B LEO 2025-09-30 18:00:41 0.0004407822 392.0 (m) ROCKET BODY
SL-14 R/B LEO 2024-11-13 01:10:15 0.0001845294 933.0 (m) ROCKET BODY
DELTA 2 R/B SSO 2024-09-27 14:05:11 0.0001783356 135.0 (m) ROCKET BODY
NOAA 16 DEB SSO 2024-06-04 05:12:56 0.0001544161 182.0 (m) DEBRIS

Associated space launch

Earth observation satellite

DELTA 1 DEB was lifted into orbit during the mission ‘Delta 0900 | Landsat 1’, on board a Delta 0900 space rocket.

The launch took place on July 23, 1972, 6:06 p.m. from Space Launch Complex 2W.

For more information about the launch, click the button.

Launch to space Delta 0900 | Landsat 1
Delta 0900 | Landsat 1

Agency: N/A

Status: Launch Successful

Launch date: July 23, 1972, 6:06 p.m. UTC

Rocket: Delta 0900

Launch pad: Space Launch Complex 2W

Location: Vandenberg SFB, CA, USA

...

Latest news about this satellite

There are no fresh news available about this satellite. Check back as we update our databases every day.


Newsletter sign-up

Weekly statistics, charts and insights to help you stay on top of the space industry.